Time,TemperatureF,DewpointF,PressureIn,WindDirection,WindDirectionDegrees,WindSpeedMPH,WindSpeedGustMPH,Humidity,HourlyPrecipIn,Conditions,Clouds,dailyrainin,SoftwareType,DateUTC
2013-03-25 00:03:00,42.0,22.0,30.21,NW,318,2.0,7.0,45,0.00,,,0.01,,2013-03-25 05:03:00,
2013-03-25 00:12:00,42.0,22.0,30.21,NW,318,2.0,7.0,45,0.00,,,0.01,,2013-03-25 05:12:00,
2013-03-25 00:22:00,42.0,22.0,30.24,NNW,329,2.0,6.0,45,0.00,,,0.00,,2013-03-25 05:22:00,
2013-03-25 00:32:00,41.0,22.0,30.24,NW,305,1.0,6.0,46,0.00,,,0.00,,2013-03-25 05:32:00,
2013-03-25 00:42:00,41.0,22.0,30.24,NW,305,1.0,6.0,46,0.00,,,0.00,,2013-03-25 05:42:00,
2013-03-25 00:52:00,41.0,22.0,30.24,NE,46,2.0,6.0,46,0.00,,,0.00,,2013-03-25 05:52:00,
2013-03-25 01:02:00,40.0,21.0,30.22,East,87,1.0,5.0,47,0.00,,,0.00,,2013-03-25 06:02:00,
2013-03-25 01:12:00,40.0,21.0,30.22,East,87,1.0,5.0,47,0.00,,,0.00,,2013-03-25 06:12:00,
2013-03-25 01:22:00,40.0,22.0,30.22,NNE,28,1.0,5.0,48,0.00,,,0.00,,2013-03-25 06:22:00,
2013-03-25 01:32:00,39.0,21.0,30.23,NW,309,2.0,6.0,49,0.00,,,0.00,,2013-03-25 06:32:00,
2013-03-25 01:42:00,39.0,21.0,30.23,NW,309,2.0,6.0,49,0.00,,,0.00,,2013-03-25 06:42:00,
2013-03-25 01:52:00,39.0,21.0,30.24,NW,321,2.0,6.0,49,0.00,,,0.00,,2013-03-25 06:52:00,
2013-03-25 02:02:00,39.0,21.0,30.24,WNW,302,1.0,7.0,49,0.00,,,0.00,,2013-03-25 07:02:00,
2013-03-25 02:12:00,39.0,21.0,30.24,WNW,302,1.0,7.0,49,0.00,,,0.00,,2013-03-25 07:12:00,
2013-03-25 02:22:00,38.0,21.0,30.25,NW,318,1.0,7.0,50,0.00,,,0.00,,2013-03-25 07:22:00,
2013-03-25 02:32:00,38.0,21.0,30.25,NNW,347,2.0,9.0,50,0.00,,,0.00,,2013-03-25 07:32:00,
2013-03-25 02:42:00,38.0,21.0,30.25,NNW,347,2.0,9.0,50,0.00,,,0.00,,2013-03-25 07:42:00,
2013-03-25 02:53:00,38.0,21.0,30.25,North,6,2.0,9.0,50,0.00,,,0.00,,2013-03-25 07:53:00,
2013-03-25 03:02:00,37.0,21.0,30.25,NNE,26,2.0,9.0,51,0.00,,,0.00,,2013-03-25 08:02:00,
2013-03-25 03:12:00,37.0,21.0,30.25,NNE,26,2.0,9.0,51,0.00,,,0.00,,2013-03-25 08:12:00,
2013-03-25 03:22:00,37.0,21.0,30.27,NNE,19,2.0,10.0,52,0.00,,,0.00,,2013-03-25 08:22:00,
2013-03-25 03:32:00,37.0,21.0,30.27,NNW,345,1.0,6.0,52,0.00,,,0.00,,2013-03-25 08:32:00,
2013-03-25 03:42:00,37.0,21.0,30.27,NNW,345,1.0,6.0,52,0.00,,,0.00,,2013-03-25 08:42:00,
2013-03-25 03:52:00,37.0,21.0,30.28,NW,306,1.0,3.0,53,0.00,,,0.00,,2013-03-25 08:52:00,
2013-03-25 04:02:00,36.0,21.0,30.28,ESE,117,1.0,5.0,54,0.00,,,0.00,,2013-03-25 09:02:00,
2013-03-25 04:12:00,36.0,21.0,30.28,ESE,117,1.0,5.0,54,0.00,,,0.00,,2013-03-25 09:12:00,
2013-03-25 04:22:00,36.0,21.0,30.28,North,0,1.0,5.0,55,0.00,,,0.00,,2013-03-25 09:22:00,
2013-03-25 04:32:00,35.0,20.0,30.29,NNW,329,0.0,5.0,55,0.00,,,0.00,,2013-03-25 09:32:00,
2013-03-25 04:43:00,35.0,20.0,30.29,NNW,329,0.0,5.0,55,0.00,,,0.00,,2013-03-25 09:43:00,
2013-03-25 04:52:00,35.0,21.0,30.29,NNW,329,0.0,2.0,56,0.00,,,0.00,,2013-03-25 09:52:00,
2013-03-25 05:03:00,35.0,21.0,30.29,NNW,329,0.0,0.0,57,0.00,,,0.00,,2013-03-25 10:03:00,
2013-03-25 05:12:00,35.0,21.0,30.29,NNW,329,0.0,0.0,57,0.00,,,0.00,,2013-03-25 10:12:00,
2013-03-25 05:22:00,34.0,21.0,30.29,NNW,329,0.0,0.0,58,0.00,,,0.00,,2013-03-25 10:22:00,
2013-03-25 05:32:00,34.0,22.0,30.30,NNW,329,0.0,1.0,60,0.00,,,0.00,,2013-03-25 10:32:00,
2013-03-25 05:42:00,34.0,22.0,30.30,NNW,329,0.0,1.0,60,0.00,,,0.00,,2013-03-25 10:42:00,
2013-03-25 05:53:00,33.0,21.0,30.30,NNW,329,0.0,0.0,62,0.00,,,0.00,,2013-03-25 10:53:00,
2013-03-25 06:03:00,32.0,22.0,30.32,NNW,329,0.0,1.0,65,0.00,,,0.00,,2013-03-25 11:03:00,
2013-03-25 06:12:00,32.0,22.0,30.32,NNW,329,0.0,1.0,65,0.00,,,0.00,,2013-03-25 11:12:00,
2013-03-25 06:23:00,32.0,22.0,30.32,NNW,329,0.0,2.0,66,0.00,,,0.00,,2013-03-25 11:23:00,
2013-03-25 06:32:00,32.0,23.0,30.32,NNW,329,0.0,1.0,69,0.00,,,0.00,,2013-03-25 11:32:00,
2013-03-25 06:42:00,32.0,23.0,30.32,NNW,329,0.0,1.0,69,0.00,,,0.00,,2013-03-25 11:42:00,
2013-03-25 06:52:00,32.0,23.0,30.32,NNW,329,1.0,3.0,70,0.00,,,0.00,,2013-03-25 11:52:00,
2013-03-25 07:02:00,32.0,24.0,30.32,NNW,329,0.0,3.0,71,0.00,,,0.00,,2013-03-25 12:02:00,
2013-03-25 07:13:00,32.0,24.0,30.32,NNW,329,0.0,3.0,71,0.00,,,0.00,,2013-03-25 12:13:00,
2013-03-25 07:32:00,32.0,23.0,30.34,WNW,294,2.0,5.0,68,0.00,,,0.00,,2013-03-25 12:32:00,
2013-03-25 07:42:00,32.0,23.0,30.34,WNW,294,2.0,5.0,68,0.00,,,0.00,,2013-03-25 12:42:00,
2013-03-25 08:02:00,32.0,23.0,30.35,WNW,290,2.0,3.0,68,0.00,,,0.00,,2013-03-25 13:02:00,
2013-03-25 08:13:00,32.0,23.0,30.35,WNW,290,2.0,3.0,68,0.00,,,0.00,,2013-03-25 13:13:00,
2013-03-25 08:22:00,32.0,23.0,30.35,WNW,290,1.0,3.0,68,0.00,,,0.00,,2013-03-25 13:22:00,
2013-03-25 08:32:00,32.0,22.0,30.37,WNW,288,2.0,5.0,67,0.00,,,0.00,,2013-03-25 13:32:00,
2013-03-25 08:42:00,32.0,22.0,30.37,WNW,288,2.0,5.0,67,0.00,,,0.00,,2013-03-25 13:42:00,
2013-03-25 08:52:00,33.0,23.0,30.37,West,271,3.0,7.0,65,0.00,,,0.00,,2013-03-25 13:52:00,
2013-03-25 09:03:00,35.0,23.0,30.37,WNW,285,2.0,7.0,62,0.00,,,0.00,,2013-03-25 14:03:00,
2013-03-25 09:12:00,35.0,23.0,30.37,WNW,285,2.0,7.0,62,0.00,,,0.00,,2013-03-25 14:12:00,
2013-03-25 09:22:00,35.0,23.0,30.37,West,278,3.0,9.0,60,0.00,,,0.00,,2013-03-25 14:22:00,
2013-03-25 09:32:00,36.0,23.0,30.39,West,277,3.0,7.0,60,0.00,,,0.00,,2013-03-25 14:32:00,
2013-03-25 09:42:00,36.0,23.0,30.39,West,277,3.0,7.0,60,0.00,,,0.00,,2013-03-25 14:42:00,
2013-03-25 09:52:00,36.0,23.0,30.39,West,277,3.0,7.0,60,0.00,,,0.00,,2013-03-25 14:52:00,
2013-03-25 10:02:00,39.0,24.0,30.40,NW,312,5.0,13.0,55,0.00,,,0.00,,2013-03-25 15:02:00,
2013-03-25 10:12:00,39.0,24.0,30.40,NW,312,5.0,13.0,55,0.00,,,0.00,,2013-03-25 15:12:00,
2013-03-25 10:22:00,40.0,24.0,30.40,WNW,301,6.0,13.0,52,0.00,,,0.00,,2013-03-25 15:22:00,
2013-03-25 10:33:00,41.0,23.0,30.40,North,359,6.0,12.0,49,0.00,,,0.00,,2013-03-25 15:33:00,
2013-03-25 10:42:00,41.0,23.0,30.40,North,359,6.0,12.0,49,0.00,,,0.00,,2013-03-25 15:42:00,
2013-03-25 10:53:00,42.0,24.0,30.40,WNW,286,5.0,14.0,49,0.00,,,0.00,,2013-03-25 15:53:00,
2013-03-25 11:03:00,43.0,24.0,30.41,NW,304,6.0,15.0,46,0.00,,,0.00,,2013-03-25 16:03:00,
2013-03-25 11:12:00,43.0,24.0,30.41,NW,304,6.0,15.0,46,0.00,,,0.00,,2013-03-25 16:12:00,
2013-03-25 11:23:00,43.0,24.0,30.41,NW,304,6.0,15.0,46,0.00,,,0.00,,2013-03-25 16:23:00,
2013-03-25 11:33:00,44.0,24.0,30.41,NW,315,6.0,16.0,45,0.00,,,0.00,,2013-03-25 16:33:00,
2013-03-25 11:43:00,44.0,24.0,30.41,NW,315,6.0,16.0,45,0.00,,,0.00,,2013-03-25 16:43:00,
2013-03-25 11:53:00,46.0,25.0,30.40,NNW,329,6.0,17.0,44,0.00,,,0.00,,2013-03-25 16:53:00,
2013-03-25 12:02:00,46.0,24.0,30.41,NNW,345,7.0,14.0,42,0.00,,,0.00,,2013-03-25 17:02:00,
2013-03-25 12:12:00,46.0,24.0,30.41,NNW,345,7.0,14.0,42,0.00,,,0.00,,2013-03-25 17:12:00,
2013-03-25 12:23:00,47.0,26.0,30.41,WNW,291,5.0,14.0,43,0.00,,,0.00,,2013-03-25 17:23:00,
2013-03-25 12:32:00,47.0,26.0,30.40,NW,312,6.0,16.0,43,0.00,,,0.00,,2013-03-25 17:32:00,
2013-03-25 12:42:00,47.0,26.0,30.40,NW,312,6.0,16.0,43,0.00,,,0.00,,2013-03-25 17:42:00,
2013-03-25 12:53:00,47.0,25.0,30.40,NNW,340,5.0,20.0,42,0.00,,,0.00,,2013-03-25 17:53:00,
2013-03-25 13:03:00,49.0,25.0,30.39,WNW,302,7.0,16.0,39,0.00,,,0.00,,2013-03-25 18:03:00,
2013-03-25 13:12:00,49.0,25.0,30.39,WNW,302,7.0,16.0,39,0.00,,,0.00,,2013-03-25 18:12:00,
2013-03-25 13:22:00,49.0,25.0,30.39,WNW,302,7.0,16.0,39,0.00,,,0.00,,2013-03-25 18:22:00,
2013-03-25 13:32:00,50.0,26.0,30.39,NNW,335,7.0,17.0,39,0.00,,,0.00,,2013-03-25 18:32:00,
2013-03-25 13:42:00,50.0,26.0,30.39,NNW,335,7.0,17.0,39,0.00,,,0.00,,2013-03-25 18:42:00,
2013-03-25 13:52:00,50.0,25.0,30.38,NW,307,7.0,13.0,37,0.00,,,0.00,,2013-03-25 18:52:00,
2013-03-25 14:03:00,51.0,26.0,30.38,NNW,331,3.0,12.0,38,0.00,,,0.00,,2013-03-25 19:03:00,
2013-03-25 14:12:00,51.0,26.0,30.38,NNW,331,3.0,12.0,38,0.00,,,0.00,,2013-03-25 19:12:00,
2013-03-25 14:22:00,51.0,25.0,30.38,NW,308,7.0,16.0,36,0.00,,,0.00,,2013-03-25 19:22:00,
2013-03-25 14:33:00,51.0,24.0,30.36,WNW,297,7.0,18.0,35,0.00,,,0.00,,2013-03-25 19:33:00,
2013-03-25 14:42:00,51.0,24.0,30.36,WNW,297,7.0,18.0,35,0.00,,,0.00,,2013-03-25 19:42:00,
2013-03-25 14:52:00,51.0,24.0,30.36,NW,315,7.0,18.0,34,0.00,,,0.00,,2013-03-25 19:52:00,
2013-03-25 15:02:00,51.0,24.0,30.36,NW,307,7.0,16.0,34,0.00,,,0.00,,2013-03-25 20:02:00,
2013-03-25 15:12:00,51.0,24.0,30.36,NW,307,7.0,16.0,34,0.00,,,0.00,,2013-03-25 20:12:00,
2013-03-25 15:22:00,51.0,24.0,30.35,NNW,347,7.0,14.0,34,0.00,,,0.00,,2013-03-25 20:22:00,
2013-03-25 15:32:00,51.0,22.0,30.35,North,359,6.0,15.0,32,0.00,,,0.00,,2013-03-25 20:32:00,
2013-03-25 15:42:00,51.0,22.0,30.35,North,359,6.0,15.0,32,0.00,,,0.00,,2013-03-25 20:42:00,
2013-03-25 15:52:00,51.0,22.0,30.33,NW,321,8.0,16.0,32,0.00,,,0.00,,2013-03-25 20:52:00,
2013-03-25 16:02:00,52.0,22.0,30.33,NNW,348,5.0,14.0,31,0.00,,,0.00,,2013-03-25 21:02:00,
2013-03-25 16:12:00,52.0,22.0,30.33,NNW,348,5.0,14.0,31,0.00,,,0.00,,2013-03-25 21:12:00,
2013-03-25 16:22:00,52.0,22.0,30.33,WNW,282,9.0,14.0,30,0.00,,,0.00,,2013-03-25 21:22:00,
2013-03-25 16:33:00,52.0,22.0,30.32,NW,304,6.0,14.0,30,0.00,,,0.00,,2013-03-25 21:33:00,
2013-03-25 16:42:00,52.0,22.0,30.32,NW,304,6.0,14.0,30,0.00,,,0.00,,2013-03-25 21:42:00,
2013-03-25 16:52:00,52.0,22.0,30.32,NW,304,6.0,14.0,30,0.00,,,0.00,,2013-03-25 21:52:00,
2013-03-25 17:03:00,52.0,21.0,30.32,NW,318,6.0,16.0,29,0.00,,,0.00,,2013-03-25 22:03:00,
2013-03-25 17:12:00,52.0,21.0,30.32,NW,318,6.0,16.0,29,0.00,,,0.00,,2013-03-25 22:12:00,
2013-03-25 17:23:00,52.0,21.0,30.31,NW,321,5.0,14.0,29,0.00,,,0.00,,2013-03-25 22:23:00,
2013-03-25 17:33:00,52.0,21.0,30.31,NW,313,7.0,20.0,29,0.00,,,0.00,,2013-03-25 22:33:00,
2013-03-25 17:42:00,52.0,21.0,30.31,NW,313,7.0,20.0,29,0.00,,,0.00,,2013-03-25 22:42:00,
2013-03-25 17:52:00,52.0,20.0,30.30,NW,314,6.0,15.0,28,0.00,,,0.00,,2013-03-25 22:52:00,
2013-03-25 18:02:00,53.0,22.0,30.31,NW,318,7.0,15.0,29,0.00,,,0.00,,2013-03-25 23:02:00,
2013-03-25 18:12:00,53.0,22.0,30.31,NW,318,7.0,15.0,29,0.00,,,0.00,,2013-03-25 23:12:00,
2013-03-25 18:22:00,53.0,22.0,30.31,NW,318,7.0,15.0,29,0.00,,,0.00,,2013-03-25 23:22:00,
2013-03-25 18:32:00,52.0,21.0,30.32,NW,324,3.0,12.0,29,0.00,,,0.00,,2013-03-25 23:32:00,
2013-03-25 18:42:00,52.0,21.0,30.32,NW,324,3.0,12.0,29,0.00,,,0.00,,2013-03-25 23:42:00,
2013-03-25 18:52:00,52.0,21.0,30.32,WNW,303,6.0,12.0,29,0.00,,,0.00,,2013-03-25 23:52:00,
2013-03-25 19:02:00,52.0,22.0,30.32,NW,317,5.0,18.0,30,0.00,,,0.00,,2013-03-26 00:02:00,
2013-03-25 19:12:00,52.0,22.0,30.32,NW,317,5.0,18.0,30,0.00,,,0.00,,2013-03-26 00:12:00,
2013-03-25 19:22:00,51.0,21.0,30.32,NNW,327,8.0,15.0,30,0.00,,,0.00,,2013-03-26 00:22:00,
2013-03-25 19:32:00,51.0,21.0,30.34,NW,313,6.0,13.0,31,0.00,,,0.00,,2013-03-26 00:32:00,
2013-03-25 19:42:00,51.0,21.0,30.34,NW,313,6.0,13.0,31,0.00,,,0.00,,2013-03-26 00:42:00,
2013-03-25 19:52:00,51.0,21.0,30.34,NW,313,6.0,13.0,31,0.00,,,0.00,,2013-03-26 00:52:00,
2013-03-25 20:02:00,49.0,21.0,30.35,NW,315,5.0,12.0,33,0.00,,,0.00,,2013-03-26 01:02:00,
2013-03-25 20:12:00,49.0,21.0,30.35,NW,315,5.0,12.0,33,0.00,,,0.00,,2013-03-26 01:12:00,
2013-03-25 20:22:00,49.0,22.0,30.35,NW,308,2.0,14.0,34,0.00,,,0.00,,2013-03-26 01:22:00,
2013-03-25 20:32:00,48.0,22.0,30.36,NNW,339,1.0,6.0,35,0.00,,,0.00,,2013-03-26 01:32:00,
2013-03-25 20:42:00,48.0,22.0,30.36,NNW,339,1.0,6.0,35,0.00,,,0.00,,2013-03-26 01:42:00,
2013-03-25 20:52:00,47.0,21.0,30.37,NW,308,1.0,5.0,36,0.00,,,0.00,,2013-03-26 01:52:00,
2013-03-25 21:02:00,47.0,22.0,30.37,NW,319,0.0,3.0,37,0.00,,,0.00,,2013-03-26 02:02:00,
2013-03-25 21:12:00,47.0,22.0,30.37,NW,319,0.0,3.0,37,0.00,,,0.00,,2013-03-26 02:12:00,
2013-03-25 21:22:00,47.0,22.0,30.37,NW,319,0.0,3.0,37,0.00,,,0.00,,2013-03-26 02:22:00,
2013-03-25 21:32:00,46.0,22.0,30.39,West,271,1.0,5.0,38,0.00,,,0.00,,2013-03-26 02:32:00,
2013-03-25 21:42:00,46.0,22.0,30.39,West,271,1.0,5.0,38,0.00,,,0.00,,2013-03-26 02:42:00,
2013-03-25 21:52:00,46.0,22.0,30.39,WNW,300,1.0,6.0,38,0.00,,,0.00,,2013-03-26 02:52:00,
2013-03-25 22:02:00,46.0,22.0,30.40,WNW,300,1.0,3.0,39,0.00,,,0.00,,2013-03-26 03:02:00,
2013-03-25 22:12:00,46.0,22.0,30.40,WNW,300,1.0,3.0,39,0.00,,,0.00,,2013-03-26 03:12:00,
2013-03-25 22:22:00,45.0,22.0,30.40,WNW,300,0.0,3.0,40,0.00,,,0.00,,2013-03-26 03:22:00,
2013-03-25 22:33:00,44.0,22.0,30.41,WNW,300,0.0,2.0,41,0.00,,,0.00,,2013-03-26 03:33:00,
2013-03-25 22:42:00,44.0,22.0,30.41,WNW,300,0.0,2.0,41,0.00,,,0.00,,2013-03-26 03:42:00,
2013-03-25 22:52:00,44.0,22.0,30.41,WNW,300,0.0,1.0,42,0.00,,,0.00,,2013-03-26 03:52:00,
2013-03-25 23:03:00,43.0,22.0,30.42,North,11,0.0,2.0,42,0.00,,,0.00,,2013-03-26 04:03:00,
2013-03-25 23:12:00,43.0,22.0,30.42,North,11,0.0,2.0,42,0.00,,,0.00,,2013-03-26 04:12:00,
2013-03-25 23:23:00,43.0,22.0,30.44,ENE,65,1.0,3.0,42,0.00,,,0.00,,2013-03-26 04:23:00,
2013-03-25 23:32:00,42.0,21.0,30.44,West,275,0.0,2.0,42,0.00,,,0.00,,2013-03-26 04:32:00,
2013-03-25 23:43:00,42.0,21.0,30.44,West,275,0.0,2.0,42,0.00,,,0.00,,2013-03-26 04:43:00,
2013-03-25 23:52:00,42.0,21.0,30.44,West,275,0.0,2.0,42,0.00,,,0.00,,2013-03-26 04:52:00,